Location: Lake Hudson State Recreational Area
(41.8372°N, 84.2445°W)
Time: 10:54:03
(UTC-05:00)

OTV 5 (USA 277) - Visible Passes

Search period start: 12 December 2017 00:00
Search period end: 22 December 2017 00:00
Orbit: 404 x 417 km, 43.0° (Epoch: 07 September)

Date Brightness Start Highest point End Pass type
(mag) Time Alt. Az. Time Alt. Az. Time Alt. Az.
12 Dec ? 19:03:40 10° W 19:06:56 47° SSW 19:07:02 47° SSW visible
13 Dec ? 18:12:33 10° W 18:15:55 64° SSW 18:18:47 13° ESE visible
13 Dec ? 19:50:39 10° WSW 19:51:35 14° WSW 19:51:35 14° WSW visible
14 Dec ? 18:59:09 10° W 19:01:54 23° SSW 19:03:33 16° S visible
15 Dec ? 18:07:52 10° W 18:10:57 33° SSW 18:14:01 10° SE visible
16 Dec ? 18:55:59 10° SW 18:56:43 11° SW 18:57:26 10° SSW visible
17 Dec ? 18:03:41 10° WSW 18:05:50 16° SW 18:07:59 10° S visible
